Alexandria, LA

4:29 PM CDT on August 29, 2016 (GMT -0500)
Alexandria International

Weather History for KAEX - January, 2000

Change the Weather History Date:

Saturday, January 8, 2000

  Actual Average Record
Temperature  
Mean Temperature 56 °F 49 °F  
Max Temperature 63 °F 59 °F 79 °F (1907)
Min Temperature 50 °F 39 °F 17 °F (1942)
Degree Days  
Heating Degree Days 8 16  
Month to date heating degree days 128  
Since 1 July heating degree days 917  
Growing Degree Days 6 (Base 50)    
Moisture  
Dew Point 45 °F    
Average Humidity 65    
Maximum Humidity 84    
Minimum Humidity 47    
Precipitation  
Precipitation 0.00 in 0.15 in 2.90 in (1961)
Month to date precipitation 1.19  
Year to date precipitation 1.19  
Snow  
Snow 0.00 in - T in (1971)
Month to date snowfall  
Since 1 July snowfall  
Snow Depth -    
Sea Level Pressure  
Sea Level Pressure 30.08 in    
Wind  
Wind Speed 7 mph (East)    
Max Wind Speed 13 mph    
Max Gust Speed -    
Visibility 10 miles    
Events Rain    
T = Trace of Precipitation, MM = Missing Value Source: NWS Daily Summary

Daily Weather History Graph

Daily Weather History Graph

Search for Another Location

Airport or City:

Trip Planner

Search our weather history database for the weather conditions in past years. The results will help you decide how hot, cold, wet, or windy it might be!

Date:

Astronomy

Jan. 08, 2000 Rise Set
Actual Time 7:10 AM CST 5:23 PM CST
Civil Twilight 6:43 AM CST 5:50 PM CST
Nautical Twilight 6:13 AM CST 6:20 PM CST
Astronomical Twilight 5:44 AM CST 6:49 PM CST
Moon 8:29 AM CST (1/8) 7:17 PM CST (1/8)
Length of Visible Light 11h 06m
Length of Day
10h 13m
Waxing Crescent, 4% of the Moon is Illuminated
Jan 8
Waxing Crescent
Jan 14
First Quarter
Jan 20
Full
Jan 28
Last Quarter
Feb 5
New

Hourly Weather History & Observations

Time (CST) Temp. Dew Point Humidity Pressure Visibility Wind Dir Wind Speed Gust Speed Precip Events Conditions
12:53 AM 54.0 °F 36.0 °F 51% 30.25 in 10.0 mi East 4.6 mph - N/A   Overcast
1:53 AM 54.0 °F 36.0 °F 51% 30.23 in 10.0 mi East 5.8 mph - N/A   Overcast
2:53 AM 54.0 °F 34.0 °F 47% 30.21 in 10.0 mi East 9.2 mph - N/A   Overcast
3:53 AM 52.0 °F 37.0 °F 57% 30.23 in 10.0 mi NW 3.5 mph - 0.00 in Rain Light Rain
5:53 AM 50.0 °F 41.0 °F 71% 30.24 in 10.0 mi North 6.9 mph - N/A   Overcast
6:53 AM 50.0 °F 39.9 °F 68% 30.21 in 10.0 mi NE 6.9 mph - 0.00 in Rain Light Rain
7:53 AM 51.1 °F 39.0 °F 63% 30.19 in 10.0 mi East 8.1 mph - 0.00 in   Overcast
8:53 AM 52.0 °F 37.9 °F 59% 30.18 in 10.0 mi East 10.4 mph - 0.00 in   Overcast
9:19 AM 53.6 °F 37.4 °F 54% 30.17 in 10.0 mi East 9.2 mph - N/A   Overcast
9:53 AM 55.0 °F 37.0 °F 51% 30.17 in 10.0 mi East 9.2 mph - N/A   Overcast
10:53 AM 55.9 °F 37.0 °F 49% 30.15 in 10.0 mi ESE 10.4 mph - N/A   Overcast
11:53 AM 57.9 °F 39.0 °F 49% 30.12 in 10.0 mi SE 12.7 mph - N/A   Overcast
12:53 PM 59.0 °F 43.0 °F 55% 30.07 in 10.0 mi SE 9.2 mph - 0.00 in   Overcast
1:53 PM 61.0 °F 46.0 °F 58% 30.03 in 10.0 mi SSE 8.1 mph - N/A   Overcast
2:53 PM 62.1 °F 48.9 °F 62% 30.01 in 10.0 mi SE 9.2 mph - N/A   Overcast
3:53 PM 63.0 °F 50.0 °F 63% 29.99 in 10.0 mi ESE 8.1 mph - N/A   Overcast
4:53 PM 63.0 °F 53.1 °F 70% 29.97 in 10.0 mi SE 5.8 mph - N/A   Overcast
5:53 PM 63.0 °F 55.0 °F 75% 29.96 in 10.0 mi ESE 5.8 mph - N/A   Overcast
6:53 PM 62.1 °F 55.9 °F 80% 29.97 in 10.0 mi ESE 4.6 mph - N/A   Overcast
7:02 PM 62.6 °F 55.4 °F 77% 29.96 in 10.0 mi ESE 3.5 mph - N/A   Overcast
7:53 PM 62.1 °F 55.9 °F 80% 29.97 in 10.0 mi SE 5.8 mph - N/A   Overcast
8:53 PM 62.1 °F 57.0 °F 84% 29.96 in 10.0 mi Calm Calm - N/A   Overcast
9:53 PM 59.0 °F 53.1 °F 81% 29.97 in 10.0 mi NW 5.8 mph - N/A   Overcast
10:53 PM 57.9 °F 51.1 °F 78% 29.96 in 10.0 mi NW 6.9 mph - N/A   Overcast
11:03 PM 57.2 °F 51.8 °F 82% 29.95 in 10.0 mi NW 4.6 mph - N/A   Overcast
11:53 PM 55.9 °F 51.1 °F 84% 29.96 in 10.0 mi WNW 10.4 mph - N/A   Overcast